Location: Henham
(51.9333°N, 0.2500°E)
Time: 11:59:57
(UTC+00:00)

STARLINK-25 - Pass Details

Date: 23 October 2019
Orbit: 548 x 552 km, 53.0° (Epoch: 11 November)

Event Time Altitude Azimuth Distance (km) Brightness Sun altitude
Rises 19:13:15 0° 286° (WNW) 2,720 8.6 -22.8°
Reaches altitude 10° 19:15:29 10° 284° (WNW) 1,825 7.4 -23.2°
Enters shadow 19:19:24 71° 229° (SW) 586 3.7 -23.8°
